Weather History for Cherry Point, NC

Change the Weather History Date:

Friday, December 28, 2012

  Actual Average Record
Temperature  
Mean Temperature 39 °F -  
Max Temperature 46 °F 53 °F 73 °F (2008)
Min Temperature 32 °F 33 °F 25 °F (2010)
Degree Days  
Heating Degree Days 26    
Moisture  
Dew Point 30 °F    
Average Humidity 67    
Maximum Humidity 82    
Minimum Humidity 50    
Precipitation  
Precipitation 0.00 in - - ()
Sea Level Pressure  
Sea Level Pressure 30.11 in    
Wind  
Wind Speed 4 mph ()    
Max Wind Speed 9 mph    
Max Gust Speed -    
Visibility 10.0 miles    
Events      
Averages and records for this station are not official NWS values.
T = Trace of Precipitation, MM = Missing Value Source: Averaged Metar Reports

Daily Weather History Graph

Daily Weather History Graph

Search for Another Location

Airport:

Trip Planner

Search our weather history database for the weather conditions in past years. The results will help you decide how hot, cold, wet, or windy it might be!

Date:

Astronomy

Dec. 28, 2012 Rise Set
Actual Time 7:14 AM EST 5:04 PM EST
Civil Twilight 6:46 AM EST 5:32 PM EST
Nautical Twilight 6:14 AM EST 6:04 PM EST
Astronomical Twilight 5:43 AM EST 6:34 PM EST
Moon 5:36 PM EST (12/28) 7:09 AM EST (12/28)
Length of Visible Light 10h 46m
Length of Day
9h 50m
Full, 100% of the Moon is Illuminated
Dec 28
Full
Jan 4
Last Quarter
Jan 11
New
Jan 18
First Quarter
Jan 26
Full

Hourly Weather History & Observations

Time (EST) Temp. Windchill Dew Point Humidity Pressure Visibility Wind Dir Wind Speed Gust Speed Precip Events Conditions
12:54 AM 39.9 °F 33.9 °F 28.9 °F 65% 30.06 in 10.0 mi North 9.2 mph - N/A   Clear
1:54 AM 39.0 °F 32.8 °F 28.0 °F 65% 30.07 in 10.0 mi North 9.2 mph - N/A   Clear
2:54 AM 37.9 °F 32.1 °F 28.0 °F 68% 30.08 in 10.0 mi North 8.1 mph - N/A   Clear
3:54 AM 37.0 °F 33.3 °F 28.0 °F 70% 30.09 in 10.0 mi North 4.6 mph - N/A   Clear
4:54 AM 32.0 °F 28.7 °F 27.0 °F 82% 30.11 in 10.0 mi West 3.5 mph - N/A   Clear
5:54 AM 33.1 °F 28.7 °F 27.0 °F 78% 30.13 in 10.0 mi NW 4.6 mph - N/A   Clear
6:54 AM 32.0 °F 27.5 °F 26.1 °F 79% 30.15 in 10.0 mi NW 4.6 mph - N/A   Clear
7:54 AM 34.0 °F 28.0 °F 27.0 °F 75% 30.17 in 10.0 mi NNW 6.9 mph - N/A   Scattered Clouds
8:54 AM 37.9 °F 34.4 °F 28.9 °F 70% 30.17 in 10.0 mi NNW 4.6 mph - N/A   Partly Cloudy
9:54 AM 42.1 °F 40.2 °F 28.0 °F 58% 30.19 in 10.0 mi North 3.5 mph - N/A   Scattered Clouds
10:54 AM 44.1 °F 39.0 °F 28.9 °F 55% 30.19 in 10.0 mi NNE 9.2 mph - N/A   Scattered Clouds
11:54 AM 44.1 °F 41.5 °F 28.9 °F 55% 30.15 in 10.0 mi Variable 4.6 mph - N/A   Mostly Cloudy
12:54 PM 45.0 °F 43.5 °F 28.9 °F 53% 30.13 in 10.0 mi North 3.5 mph - N/A   Mostly Cloudy
1:54 PM 46.9 °F - 30.0 °F 52% 30.12 in 10.0 mi Calm Calm - N/A   Overcast
2:54 PM 46.0 °F - 28.0 °F 50% 30.10 in 10.0 mi Calm Calm - N/A   Overcast
3:54 PM 46.0 °F 43.9 °F 30.0 °F 54% 30.09 in 10.0 mi NNE 4.6 mph - N/A   Mostly Cloudy
4:54 PM 45.0 °F 43.5 °F 30.0 °F 56% 30.08 in 10.0 mi ENE 3.5 mph - N/A   Mostly Cloudy
5:54 PM 39.9 °F - 32.0 °F 73% 30.08 in 10.0 mi Calm Calm - N/A   Mostly Cloudy
6:54 PM 39.9 °F - 34.0 °F 79% 30.08 in 10.0 mi Calm Calm - N/A   Mostly Cloudy
7:54 PM 41.0 °F - 34.0 °F 76% 30.08 in 10.0 mi Calm Calm - N/A   Mostly Cloudy
8:54 PM 41.0 °F - 34.0 °F 76% 30.07 in 10.0 mi Calm Calm - N/A   Mostly Cloudy
9:54 PM 42.1 °F - 34.0 °F 73% 30.09 in 10.0 mi Calm Calm - N/A   Mostly Cloudy
10:54 PM 42.1 °F 40.2 °F 34.0 °F 73% 30.06 in 10.0 mi ESE 3.5 mph - N/A   Overcast
11:54 PM 43.0 °F - 34.0 °F 71% 30.04 in 10.0 mi Calm Calm - N/A   Overcast